DW5679 Weather Reports


Display with metric or nautical units.
time (UTC)temp
F
wind
direction
speed
MPH
gust
MPH
rain 1hr
in
rain 24hr
in
rain mn
in
humidity
%
barometer
mb
20260508170037 68 60 0.0 1.0 0.00 0.00 0.00 65 1014.7
20260508170015 68 98 0.0 1.0 0.00 0.00 0.00 64 1014.1
20260508164531 67 20 0.0 2.0 0.00 0.00 0.00 70 1015.0
20260508164525 67 50 0.0 2.0 0.00 0.00 0.00 69 1014.3
20260508163032 67 10 0.0 1.0 0.00 0.00 0.00 69 1015.3
20260508163014 67 40 0.0 1.0 0.00 0.00 0.00 68 1014.5
20260508161527 66 19 0.0 0.0 0.00 0.00 0.00 71 1015.6
20260508161514 66 49 0.0 0.0 0.00 0.00 0.00 71 1015.1
20260508160048 66 19 0.0 0.0 0.00 0.00 0.00 73 1015.9
20260508160027 66 49 0.0 0.0 0.00 0.00 0.00 72 1015.2
20260508154519 65 19 0.0 0.0 0.00 0.00 0.00 74 1016.2
20260508154516 65 49 0.0 0.0 0.00 0.00 0.00 73 1015.6
20260508153017 64 19 0.0 0.0 0.00 0.00 0.00 75 1016.0
20260508151516 63 62 0.0 1.0 0.00 0.00 0.00 79 1015.7
20260508151512 63 32 0.0 1.0 0.00 0.00 0.00 80 1016.3
20260508150018 62 60 0.0 1.0 0.00 0.00 0.00 80 1015.9
20260508150014 62 30 0.0 1.0 0.00 0.00 0.00 81 1016.6
20260508144520 60 52 0.0 1.0 0.00 0.00 0.00 82 1016.1
20260508144505 60 22 0.0 1.0 0.00 0.00 0.00 83 1016.7
20260508143110 59 55 0.0 1.0 0.00 0.00 0.00 82 1016.6
20260508143013 59 85 0.0 1.0 0.00 0.00 0.00 82 1015.8
20260508141606 58 13 0.0 1.0 0.00 0.00 0.00 84 1016.7
20260508141528 58 43 0.0 1.0 0.00 0.00 0.00 84 1016.0
20260508140055 57 7 0.0 1.0 0.00 0.00 0.00 84 1017.0
20260508140006 57 38 0.0 1.0 0.00 0.00 0.00 84 1016.3
20260508134552 56 7 0.0 1.0 0.00 0.00 0.00 90 1016.9
20260508134507 56 36 0.0 1.0 0.00 0.00 0.00 91 1016.2
20260508133056 55 13 0.0 1.0 0.00 0.00 0.00 97 1016.8
20260508133005 55 43 0.0 1.0 0.00 0.00 0.00 96 1016.0
20260508131548 53 13 0.0 1.0 0.00 0.00 0.00 98 1016.5
20260508131522 53 43 0.0 1.0 0.00 0.00 0.00 97 1015.9
20260508130054 52 13 0.0 0.0 0.00 0.00 0.00 98 1016.6
20260508130019 52 43 0.0 0.0 0.00 0.00 0.00 97 1015.9
20260508124546 51 13 0.0 0.0 0.00 0.00 0.00 97 1016.8
20260508124512 51 43 0.0 0.0 0.00 0.00 0.00 97 1016.2
20260508123045 50 13 0.0 1.0 0.00 0.00 0.00 97 1016.7
20260508123012 50 43 0.0 1.0 0.00 0.00 0.00 96 1015.9
20260508121600 50 13 0.0 0.0 0.00 0.00 0.00 97 1016.8
20260508121508 50 44 0.0 0.0 0.00 0.00 0.00 96 1016.2
20260508120044 50 12 0.0 2.0 0.00 0.00 0.00 97 1017.1
20260508120003 50 42 0.0 2.0 0.00 0.00 0.00 96 1016.5
20260508114543 49 10 0.0 0.0 0.00 0.00 0.00 97 1016.9
20260508114524 49 40 0.0 0.0 0.00 0.00 0.00 96 1016.3
20260508113042 49 25 0.0 0.0 0.00 0.00 0.00 96 1016.7
20260508113020 49 54 0.0 0.0 0.00 0.00 0.00 96 1015.9
20260508111541 49 25 0.0 1.0 0.00 0.00 0.00 96 1016.7
20260508111515 49 54 0.0 1.0 0.00 0.00 0.00 96 1015.9
20260508110049 49 6 0.0 0.0 0.00 0.00 0.00 96 1016.8
20260508110023 49 31 0.0 0.0 0.00 0.00 0.00 96 1015.9
20260508104539 49 1 0.0 1.0 0.00 0.00 0.00 96 1016.5
20260508104524 49 31 0.0 1.0 0.00 0.00 0.00 96 1015.6
20260508103039 50 15 0.0 0.0 0.00 0.00 0.00 96 1016.5
20260508103032 50 46 0.0 0.0 0.00 0.00 0.00 96 1015.6
20260508101538 49 20 0.0 0.0 0.00 0.00 0.00 96 1016.2
20260508101534 49 50 0.0 0.0 0.00 0.00 0.00 95 1015.6
20260508100037 50 20 0.0 0.0 0.00 0.00 0.00 96 1016.1
20260508100022 50 50 0.0 0.0 0.00 0.00 0.00 96 1015.4
20260508094537 50 28 0.0 0.0 0.00 0.00 0.00 96 1016.3
20260508094518 50 57 0.0 0.0 0.00 0.00 0.00 95 1015.6
20260508093034 50 28 0.0 0.0 0.00 0.00 0.00 95 1016.5
20260508093026 50 58 0.0 0.0 0.00 0.00 0.00 95 1015.8
20260508091531 51 28 0.0 0.0 0.00 0.00 0.00 96 1016.6
20260508091527 51 58 0.0 0.0 0.00 0.00 0.00 95 1015.9
20260508090032 51 58 0.0 0.0 0.00 0.00 0.00 96 1015.9
20260508090014 51 28 0.0 0.0 0.00 0.00 0.00 96 1016.6
20260508084535 51 32 0.0 0.0 0.00 0.00 0.00 96 1016.6
20260508084526 51 62 0.0 0.0 0.00 0.00 0.00 96 1015.7
20260508083113 51 32 0.0 0.0 0.00 0.00 0.00 96 1016.5
20260508083022 51 62 0.0 0.0 0.00 0.00 0.00 95 1015.7
20260508081533 51 32 0.0 0.0 0.00 0.00 0.00 96 1016.6
20260508081522 51 62 0.0 0.0 0.00 0.00 0.00 95 1015.7
20260508080041 51 32 0.0 0.0 0.00 0.00 0.00 95 1016.5
20260508080015 51 62 0.0 0.0 0.00 0.00 0.00 95 1015.7
20260508074534 52 32 0.0 0.0 0.00 0.00 0.00 94 1016.6
20260508074512 52 62 0.0 0.0 0.00 0.00 0.00 94 1015.6
20260508073032 53 28 0.0 0.0 0.00 0.00 0.00 95 1016.5
20260508073008 53 58 0.0 0.0 0.00 0.00 0.00 95 1015.6
20260508071533 53 28 0.0 0.0 0.00 0.00 0.00 95 1016.6
20260508071508 53 58 0.0 0.0 0.00 0.00 0.00 95 1015.7
20260508070026 53 28 0.0 0.0 0.00 0.00 0.00 95 1016.4
20260508064541 53 29 0.0 0.0 0.00 0.00 0.00 96 1016.5
20260508064533 53 59 0.0 0.0 0.00 0.00 0.00 95 1015.8
20260508063023 53 65 0.0 0.0 0.00 0.00 0.00 94 1015.9
20260508061524 53 35 0.0 0.0 0.00 0.00 0.00 94 1016.9
20260508061519 53 65 0.0 0.0 0.00 0.00 0.00 93 1016.0
20260508060019 53 35 0.0 0.0 0.00 0.00 0.00 93 1016.8
20260508060016 53 65 0.0 0.0 0.00 0.00 0.00 93 1016.0
20260508054517 54 36 0.0 0.0 0.00 0.00 0.00 93 1017.0
20260508054509 54 65 0.0 0.0 0.00 0.00 0.00 92 1016.2
20260508053028 54 65 0.0 0.0 0.00 0.00 0.00 92 1016.1
20260508053015 54 35 0.0 0.0 0.00 0.00 0.00 92 1016.9
20260508051523 55 65 0.0 0.0 0.00 0.00 0.00 91 1016.2
20260508051513 55 35 0.0 0.0 0.00 0.00 0.00 91 1017.0
20260508050024 55 65 0.0 0.0 0.00 0.00 0.00 90 1016.2
20260508050014 55 35 0.0 0.0 0.00 0.00 0.00 91 1017.0
20260508044517 56 65 0.0 0.0 0.00 0.00 0.00 89 1016.1
20260508044510 56 36 0.0 0.0 0.00 0.00 0.00 90 1016.8
20260508043028 56 82 0.0 0.0 0.00 0.00 0.00 89 1016.1
20260508043009 56 53 0.0 0.0 0.00 0.00 0.00 89 1016.9
20260508041529 56 83 0.0 0.0 0.00 0.00 0.00 88 1016.2
20260508041513 56 53 0.0 0.0 0.00 0.00 0.00 88 1016.9
20260508040035 56 82 0.0 0.0 0.00 0.00 0.00 88 1016.2
20260508040008 56 52 0.0 0.0 0.00 0.00 0.00 89 1017.0
20260508034530 57 82 0.0 0.0 0.00 0.00 0.00 88 1016.0
20260508034510 57 53 0.0 0.0 0.00 0.00 0.00 89 1016.8
20260508033024 57 82 0.0 0.0 0.00 0.00 0.00 89 1016.0
20260508033007 57 52 0.0 0.0 0.00 0.00 0.00 89 1016.7
20260508031531 58 83 0.0 0.0 0.00 0.00 0.00 88 1016.0
20260508031506 58 52 0.0 0.0 0.00 0.00 0.00 88 1016.8
20260508030026 58 83 0.0 0.0 0.00 0.00 0.00 87 1015.8
20260508030007 58 52 0.0 0.0 0.00 0.00 0.00 88 1016.7
20260508024541 59 83 0.0 0.0 0.00 0.00 0.00 86 1015.9
20260508024508 58 52 0.0 0.0 0.00 0.00 0.00 87 1016.8
20260508023030 59 83 0.0 0.0 0.00 0.00 0.00 84 1015.8
20260508023005 59 53 0.0 0.0 0.00 0.00 0.00 84 1016.6
20260508021524 59 82 0.0 0.0 0.00 0.00 0.00 83 1015.4
20260508021504 59 52 0.0 0.0 0.00 0.00 0.00 84 1016.2
20260508020024 60 82 0.0 0.0 0.00 0.00 0.00 82 1015.5
20260508020012 60 53 0.0 0.0 0.00 0.00 0.00 83 1016.4
20260508014541 60 82 0.0 0.0 0.00 0.00 0.00 81 1015.2
20260508014503 60 53 0.0 0.0 0.00 0.00 0.00 81 1016.0
20260508013018 61 83 0.0 0.0 0.00 0.00 0.00 79 1015.2
20260508013004 61 53 0.0 0.0 0.00 0.00 0.00 79 1016.0
20260508011519 62 82 0.0 0.0 0.00 0.00 0.00 76 1015.0
20260508011501 62 52 0.0 0.0 0.00 0.00 0.00 77 1015.7
20260508010107 64 53 0.0 0.0 0.00 0.00 0.00 73 1015.9
20260508010023 64 82 0.0 0.0 0.00 0.00 0.00 72 1014.9
20260508004604 65 53 0.0 0.0 0.00 0.00 0.00 73 1015.7
20260508004515 65 82 0.0 0.0 0.00 0.00 0.00 72 1014.9
20260508003111 67 53 0.0 1.0 0.00 0.00 0.00 72 1015.7
20260508003048 67 83 0.0 1.0 0.00 0.00 0.00 71 1014.9
20260508001525 68 49 0.0 0.0 0.00 0.00 0.00 68 1014.7
20260508001504 68 20 0.0 0.0 0.00 0.00 0.00 68 1015.6
20260508000022 68 78 0.0 1.0 0.00 0.00 0.00 64 1014.8
20260508000018 68 48 0.0 1.0 0.00 0.00 0.00 65 1015.6
20260507234610 69 51 0.0 0.0 0.00 0.00 0.00 62 1015.6
20260507234516 69 82 0.0 0.0 0.00 0.00 0.00 60 1014.8
20260507233017 70 38 0.0 0.0 0.00 0.00 0.00 58 1014.7
20260507233001 70 8 0.0 0.0 0.00 0.00 0.00 58 1015.5
20260507231530 70 38 0.0 0.0 0.00 0.00 0.00 55 1014.9
20260507231517 70 8 0.0 0.0 0.00 0.00 0.00 55 1015.7
20260507230018 70 8 0.0 1.0 0.00 0.00 0.00 53 1015.9
20260507230013 70 38 0.0 1.0 0.00 0.00 0.00 50 1015.0
20260507224604 70 343 0.0 0.0 0.00 0.00 0.00 53 1015.8
20260507224512 70 13 0.0 0.0 0.00 0.00 0.00 51 1014.9
20260507223033 70 339 1.0 4.0 0.00 0.00 0.00 50 1015.7
20260507223025 70 10 1.0 4.0 0.00 0.00 0.00 48 1014.9
20260507221519 70 7 0.0 3.0 0.00 0.00 0.00 50 1015.0
20260507221516 70 338 0.0 3.0 0.00 0.00 0.00 51 1016.0
20260507220016 70 30 0.0 1.0 0.00 0.00 0.00 52 1014.8
20260507214513 70 32 0.0 0.0 0.00 0.00 0.00 52 1016.0
20260507213015 70 73 0.0 2.0 0.00 0.00 0.00 50 1015.9
20260507213012 70 102 0.0 2.0 0.00 0.00 0.00 49 1014.9
20260507211510 69 355 0.0 4.0 0.00 0.00 0.00 50 1016.1
20260507210031 69 81 0.0 5.0 0.00 0.00 0.00 50 1015.3
20260507210008 69 53 0.0 5.0 0.00 0.00 0.00 51 1016.3
20260507204521 69 31 0.0 4.0 0.00 0.00 0.00 51 1015.3
20260507204507 69 2 0.0 4.0 0.00 0.00 0.00 52 1016.3
20260507203019 69 358 2.0 7.0 0.00 0.00 0.00 52 1015.5
20260507203005 69 337 2.0 7.0 0.00 0.00 0.00 52 1016.5
20260507201520 69 23 0.0 4.0 0.00 0.00 0.00 51 1015.7
20260507201505 69 354 0.0 4.0 0.00 0.00 0.00 52 1016.6
20260507200013 69 21 0.0 4.0 0.00 0.00 0.00 49 1015.9
20260507200003 69 351 0.0 4.0 0.00 0.00 0.00 50 1016.7
20260507194535 70 28 0.0 2.0 0.00 0.00 0.00 48 1016.0
20260507194502 70 358 0.0 2.0 0.00 0.01 0.00 49 1016.9
20260507193109 68 359 0.0 1.0 0.00 0.01 0.00 52 1017.2
20260507193031 68 29 0.0 1.0 0.00 0.00 0.00 54 1016.3
20260507191556 68 12 0.0 1.0 0.00 0.01 0.00 56 1017.4
20260507191523 68 42 0.0 1.0 0.00 0.00 0.00 55 1016.5
20260507190027 68 53 0.0 1.0 0.00 0.01 0.00 54 1016.6
20260507184551 67 18 0.0 1.0 0.00 0.10 0.00 58 1017.7
20260507184521 67 78 0.0 3.0 0.00 0.03 0.00 59 1016.8
20260507183049 65 343 0.0 3.0 0.00 0.10 0.00 56 1017.9
20260507183016 65 13 0.0 3.0 0.00 0.06 0.00 54 1017.1
20260507181545 65 65 0.0 4.0 0.00 0.10 0.00 56 1018.4
20260507181527 65 90 0.0 4.0 0.00 0.08 0.00 55 1017.4
20260507180050 65 10 0.0 1.0 0.00 0.10 0.00 56 1018.5
20260507180027 65 41 0.0 1.0 0.00 0.10 0.00 56 1017.7
20260507174544 65 340 0.0 4.0 0.00 0.32 0.00 60 1018.8
20260507174526 65 14 0.0 4.0 0.00 0.11 0.00 57 1017.9
20260507173041 64 349 0.0 3.0 0.00 0.32 0.00 55 1019.2
20260507173027 64 13 1.0 4.0 0.00 0.11 0.00 55 1018.2
20260507171538 63 348 0.0 1.0 0.00 0.32 0.00 58 1019.4
20260507171522 63 18 0.0 1.0 0.00 0.12 0.00 57 1018.4